Weather History for KTUS - January, 2012

Change the Weather History Date:

Saturday, January 7, 2012

  Actual Average Record
Temperature  
Mean Temperature 59 °F 52 °F  
Max Temperature 74 °F 65 °F 80 °F (1948)
Min Temperature 43 °F 39 °F 6 °F (1913)
Degree Days  
Heating Degree Days 6 13  
Month to date heating degree days 30 91  
Since 1 July heating degree days 708 702  
Cooling Degree Days 0 0  
Month to date cooling degree days 2 0  
Year to date cooling degree days 2 0  
Growing Degree Days 8 (Base 50)    
Moisture  
Dew Point 21 °F    
Average Humidity 25    
Maximum Humidity 39    
Minimum Humidity 10    
Precipitation  
Precipitation 0.00 in 0.03 in 1.21 in (1993)
Month to date precipitation 0.00 0.21  
Year to date precipitation 0.00 0.21  
Snow  
Snow 0.00 in - - ()
Month to date snowfall 0.0  
Snow Depth 0.00 in    
Sea Level Pressure  
Sea Level Pressure 29.93 in    
Wind  
Wind Speed 7 mph (South)    
Max Wind Speed 10 mph    
Max Gust Speed 16 mph    
Visibility 10 miles    
Events      
T = Trace of Precipitation, MM = Missing Value Source: NWS Daily Summary

Daily Weather History Graph

Daily Weather History Graph

Search for Another Location

Airport or City:

Trip Planner

Search our weather history database for the weather conditions in past years. The results will help you decide how hot, cold, wet, or windy it might be!

Date:

Astronomy

Jan. 07, 2012 Rise Set
Actual Time 7:25 AM MST 5:34 PM MST
Civil Twilight 6:58 AM MST 6:01 PM MST
Nautical Twilight 6:28 AM MST 6:31 PM MST
Astronomical Twilight 5:58 AM MST 7:01 PM MST
Moon 4:23 PM MST (1/7) 5:58 AM MST (1/7)
Length of Visible Light 11h 02m
Length of Day
10h 09m
Waxing Gibbous, 98% of the Moon is Illuminated
Jan 7
Waxing Gibbous
Jan 9
Full
Jan 16
Last Quarter
Jan 23
New
Jan 30
First Quarter

Hourly Weather History & Observations

Time (MST) Temp. Windchill Dew Point Humidity Pressure Visibility Wind Dir Wind Speed Gust Speed Precip Events Conditions
12:53 AM 46.0 °F 41.4 °F 21.9 °F 39% 29.98 in 10.0 mi SE 9.2 mph - N/A   Clear
1:53 AM 46.0 °F 41.4 °F 21.0 °F 37% 29.97 in 10.0 mi SE 9.2 mph - N/A   Clear
2:53 AM 46.9 °F - 19.9 °F 34% 29.96 in 10.0 mi SE 9.2 mph - N/A   Clear
3:53 AM 44.1 °F 39.5 °F 19.9 °F 38% 29.96 in 10.0 mi SE 8.1 mph - N/A   Clear
4:53 AM 44.1 °F 42.5 °F 19.9 °F 38% 29.96 in 10.0 mi ESE 3.5 mph - N/A   Clear
5:53 AM 46.0 °F 42.5 °F 19.0 °F 34% 29.97 in 10.0 mi SE 6.9 mph - N/A   Clear
6:53 AM 44.1 °F 39.5 °F 19.9 °F 38% 29.97 in 10.0 mi SE 8.1 mph - N/A   Clear
7:53 AM 46.0 °F 41.0 °F 19.9 °F 35% 30.00 in 10.0 mi SE 10.4 mph - N/A   Clear
8:53 AM 50.0 °F - 21.0 °F 32% 30.01 in 10.0 mi SSE 11.5 mph - N/A   Clear
9:53 AM 57.9 °F - 19.0 °F 22% 30.01 in 10.0 mi SE 12.7 mph - N/A   Clear
10:53 AM 64.0 °F - 19.0 °F 18% 29.99 in 10.0 mi ESE 4.6 mph - N/A   Clear
11:53 AM 68.0 °F - 19.9 °F 16% 29.95 in 10.0 mi South 5.8 mph - N/A   Clear
12:53 PM 71.1 °F - 19.9 °F 14% 29.91 in 10.0 mi Calm Calm - N/A   Clear
1:53 PM 73.0 °F - 18.0 °F 12% 29.88 in 10.0 mi NNW 6.9 mph - N/A   Clear
2:53 PM 73.9 °F - 16.0 °F 11% 29.85 in 10.0 mi WNW 11.5 mph 16.1 mph N/A   Clear
3:53 PM 73.0 °F - 14.0 °F 11% 29.86 in 10.0 mi West 6.9 mph - N/A   Clear
4:53 PM 71.1 °F - 17.1 °F 13% 29.86 in 10.0 mi West 9.2 mph - N/A   Clear
5:53 PM 64.9 °F - 19.9 °F 18% 29.87 in 10.0 mi WSW 4.6 mph - N/A   Clear
6:53 PM 61.0 °F - 21.9 °F 22% 29.89 in 10.0 mi WNW 5.8 mph - N/A   Clear
7:53 PM 57.9 °F - 23.0 °F 26% 29.90 in 10.0 mi WNW 5.8 mph - N/A   Clear
8:53 PM 54.0 °F - 24.1 °F 31% 29.91 in 10.0 mi West 3.5 mph - N/A   Clear
9:53 PM 54.0 °F - 26.1 °F 34% 29.92 in 10.0 mi SSW 5.8 mph - N/A   Clear
10:53 PM 50.0 °F - 26.1 °F 39% 29.92 in 10.0 mi Calm Calm - N/A   Clear
11:53 PM 50.0 °F - 26.1 °F 39% 29.91 in 10.0 mi SW 4.6 mph - N/A   Clear